Location: Launois
(49.6535°N, 4.5395°E)
Time: 20:27:54
(UTC+00:00)

Cosmos 1346 Rocket - Pass Details

Date: 23 May 2024
Orbit: 508 x 521 km, 81.2° (Epoch: 14 June)

Event Time Altitude Azimuth Distance (km) Brightness Sun altitude
Rises 00:38:50 0° 347° (NNW) 2,661 7.4 -18.4°
Reaches altitude 10° 00:40:59 10° 346° (NNW) 1,769 6.3 -18.4°
Maximum altitude 00:44:52 79° 261° (W) 539 2.6 -18.2°
Enters shadow 00:45:58 45° 182° (S) 718 2.9 -18.1°
